Time,TemperatureF,DewpointF,PressureIn,WindDirection,WindDirectionDegrees,WindSpeedMPH,WindSpeedGustMPH,Humidity,HourlyPrecipIn,Conditions,Clouds,dailyrainin,SoftwareType,DateUTC
2013-03-09 00:00:00,36.8,27.2,30.25,NNW,338,0.0,0.0,68,0.00,,,0.00,WUHU216HW,2013-03-09 05:00:00,
2013-03-09 00:01:00,36.6,27.1,30.25,NNW,338,0.0,0.0,68,0.00,,,0.00,WUHU216HW,2013-03-09 05:01:00,
2013-03-09 00:06:00,36.5,27.3,30.25,NNW,338,0.0,0.0,69,0.00,,,0.00,WUHU216HW,2013-03-09 05:06:00,
2013-03-09 00:11:00,36.3,27.1,30.25,NNW,338,0.0,0.0,69,0.00,,,0.00,WUHU216HW,2013-03-09 05:11:00,
2013-03-09 00:16:00,36.5,27.6,30.25,NNW,338,0.0,0.0,70,0.00,,,0.00,WUHU216HW,2013-03-09 05:16:00,
2013-03-09 00:21:00,36.5,27.6,30.25,NNW,338,0.0,0.0,70,0.00,,,0.00,WUHU216HW,2013-03-09 05:21:00,
2013-03-09 00:26:00,36.5,27.6,30.25,NNW,338,0.0,0.0,70,0.00,,,0.00,WUHU216HW,2013-03-09 05:26:00,
2013-03-09 00:31:00,36.5,27.6,30.25,NNW,338,0.0,0.0,70,0.00,,,0.00,WUHU216HW,2013-03-09 05:31:00,
2013-03-09 00:37:00,36.5,27.6,30.25,NNW,338,0.0,0.0,70,0.00,,,0.00,WUHU216HW,2013-03-09 05:37:00,
2013-03-09 00:42:00,36.5,27.6,30.24,NNW,338,0.0,0.0,70,0.00,,,0.00,WUHU216HW,2013-03-09 05:42:00,
2013-03-09 00:47:00,36.3,27.5,30.24,NNW,338,0.0,0.0,70,0.00,,,0.00,WUHU216HW,2013-03-09 05:47:00,
2013-03-09 00:52:00,36.1,27.3,30.24,NNW,338,0.0,0.0,70,0.00,,,0.00,WUHU216HW,2013-03-09 05:52:00,
2013-03-09 00:57:00,36.1,27.6,30.23,North,0,0.0,0.0,71,0.00,,,0.00,WUHU216HW,2013-03-09 05:57:00,
2013-03-09 01:02:00,35.9,27.4,30.24,NNW,338,0.0,0.0,71,0.00,,,0.00,WUHU216HW,2013-03-09 06:02:00,
2013-03-09 01:07:00,35.9,27.4,30.23,NNW,338,0.0,0.0,71,0.00,,,0.00,WUHU216HW,2013-03-09 06:07:00,
2013-03-09 01:13:00,36.1,27.6,30.24,NNW,338,0.0,0.0,71,0.00,,,0.00,WUHU216HW,2013-03-09 06:13:00,
2013-03-09 01:18:00,36.1,27.6,30.24,NNW,338,0.0,0.0,71,0.00,,,0.00,WUHU216HW,2013-03-09 06:18:00,
2013-03-09 01:23:00,36.1,27.6,30.23,NNW,338,0.0,0.0,71,0.00,,,0.00,WUHU216HW,2013-03-09 06:23:00,
2013-03-09 01:28:00,36.1,27.9,30.23,NNW,338,0.0,0.0,72,0.00,,,0.00,WUHU216HW,2013-03-09 06:28:00,
2013-03-09 01:33:00,36.1,27.9,30.23,NNW,338,0.0,0.0,72,0.00,,,0.00,WUHU216HW,2013-03-09 06:33:00,
2013-03-09 01:38:00,35.9,27.7,30.23,NNW,338,0.0,0.0,72,0.00,,,0.00,WUHU216HW,2013-03-09 06:38:00,
2013-03-09 01:43:00,35.7,28.1,30.23,NNW,338,0.0,0.0,73,0.00,,,0.00,WUHU216HW,2013-03-09 06:43:00,
2013-03-09 01:48:00,35.7,27.9,30.23,NNW,338,0.0,0.0,73,0.00,,,0.00,WUHU216HW,2013-03-09 06:48:00,
2013-03-09 01:53:00,35.4,27.8,30.23,NNW,338,0.0,0.0,74,0.00,,,0.00,WUHU216HW,2013-03-09 06:53:00,
2013-03-09 01:58:00,35.4,27.8,30.23,NNW,338,0.0,0.0,74,0.00,,,0.00,WUHU216HW,2013-03-09 06:58:00,
2013-03-09 02:03:00,35.2,27.7,30.23,NNW,338,0.0,0.0,74,0.00,,,0.00,WUHU216HW,2013-03-09 07:03:00,
2013-03-09 02:09:00,35.4,27.8,30.23,NNW,338,0.0,0.0,74,0.00,,,0.00,WUHU216HW,2013-03-09 07:09:00,
2013-03-09 02:14:00,35.4,27.5,30.23,NNW,338,0.0,0.0,73,0.00,,,0.00,WUHU216HW,2013-03-09 07:14:00,
2013-03-09 02:19:00,35.7,27.9,30.23,NNW,338,0.0,0.0,73,0.00,,,0.00,WUHU216HW,2013-03-09 07:19:00,
2013-03-09 02:24:00,35.7,27.9,30.23,NNW,338,0.0,0.0,73,0.00,,,0.00,WUHU216HW,2013-03-09 07:24:00,
2013-03-09 02:29:00,35.4,27.8,30.22,NNW,338,0.0,0.0,74,0.00,,,0.00,WUHU216HW,2013-03-09 07:29:00,
2013-03-09 02:34:00,35.4,27.8,30.23,NNW,338,0.0,0.0,74,0.00,,,0.00,WUHU216HW,2013-03-09 07:34:00,
2013-03-09 02:39:00,35.4,27.8,30.22,NNW,338,0.0,0.0,74,0.00,,,0.00,WUHU216HW,2013-03-09 07:39:00,
2013-03-09 02:44:00,35.4,27.8,30.22,NNW,338,0.0,0.0,74,0.00,,,0.00,WUHU216HW,2013-03-09 07:44:00,
2013-03-09 02:49:00,35.2,28.0,30.22,NNW,338,0.0,0.0,75,0.00,,,0.00,WUHU216HW,2013-03-09 07:49:00,
2013-03-09 02:54:00,35.2,28.0,30.22,NNW,338,0.0,0.0,75,0.00,,,0.00,WUHU216HW,2013-03-09 07:54:00,
2013-03-09 02:59:00,34.8,28.0,30.22,NNW,338,0.0,0.0,76,0.00,,,0.00,WUHU216HW,2013-03-09 07:59:00,
2013-03-09 03:04:00,34.8,28.0,30.22,NNW,338,0.0,0.0,76,0.00,,,0.00,WUHU216HW,2013-03-09 08:04:00,
2013-03-09 03:09:00,34.7,27.8,30.21,NNW,338,0.0,0.0,76,0.00,,,0.00,WUHU216HW,2013-03-09 08:09:00,
2013-03-09 03:14:00,34.5,27.6,30.22,NNW,338,0.0,0.0,76,0.00,,,0.00,WUHU216HW,2013-03-09 08:14:00,
2013-03-09 03:20:00,34.3,27.7,30.22,NNW,338,0.0,0.0,77,0.00,,,0.00,WUHU216HW,2013-03-09 08:20:00,
2013-03-09 03:25:00,34.3,27.7,30.21,NNW,338,0.0,0.0,77,0.00,,,0.00,WUHU216HW,2013-03-09 08:25:00,
2013-03-09 03:30:00,34.3,27.7,30.21,NNW,338,0.0,0.0,77,0.00,,,0.00,WUHU216HW,2013-03-09 08:30:00,
2013-03-09 03:35:00,34.3,27.4,30.21,NNW,338,0.0,0.0,76,0.00,,,0.00,WUHU216HW,2013-03-09 08:35:00,
2013-03-09 03:40:00,34.3,27.4,30.21,NNW,338,0.0,0.0,76,0.00,,,0.00,WUHU216HW,2013-03-09 08:40:00,
2013-03-09 03:45:00,34.3,27.4,30.21,NNW,338,0.0,0.0,76,0.00,,,0.00,WUHU216HW,2013-03-09 08:45:00,
2013-03-09 03:50:00,34.3,27.4,30.21,NNE,23,0.0,0.0,76,0.00,,,0.00,WUHU216HW,2013-03-09 08:50:00,
2013-03-09 03:55:00,34.3,27.4,30.21,NNE,23,0.0,0.0,76,0.00,,,0.00,WUHU216HW,2013-03-09 08:55:00,
2013-03-09 04:00:00,34.3,27.4,30.21,NNE,23,0.0,0.0,76,0.00,,,0.00,WUHU216HW,2013-03-09 09:00:00,
2013-03-09 04:05:00,34.3,27.4,30.21,NNE,23,0.0,0.0,76,0.00,,,0.00,WUHU216HW,2013-03-09 09:05:00,
2013-03-09 04:10:00,34.5,27.6,30.21,NNE,23,0.0,0.0,76,0.00,,,0.00,WUHU216HW,2013-03-09 09:10:00,
2013-03-09 04:15:00,34.7,27.5,30.22,North,0,0.0,0.0,75,0.00,,,0.00,WUHU216HW,2013-03-09 09:15:00,
2013-03-09 04:21:00,35.2,28.0,30.21,North,0,0.0,0.0,75,0.00,,,0.00,WUHU216HW,2013-03-09 09:21:00,
2013-03-09 04:26:00,35.2,28.0,30.22,North,0,0.0,0.0,75,0.00,,,0.00,WUHU216HW,2013-03-09 09:26:00,
2013-03-09 04:31:00,35.4,28.2,30.22,North,0,0.0,0.0,75,0.00,,,0.00,WUHU216HW,2013-03-09 09:31:00,
2013-03-09 04:36:00,35.4,28.4,30.22,North,0,0.0,0.0,75,0.00,,,0.00,WUHU216HW,2013-03-09 09:36:00,
2013-03-09 04:41:00,35.7,28.5,30.21,NNE,23,0.0,2.4,75,0.00,,,0.00,WUHU216HW,2013-03-09 09:41:00,
2013-03-09 04:46:00,36.3,28.7,30.22,NE,45,0.0,2.4,74,0.00,,,0.00,WUHU216HW,2013-03-09 09:46:00,
2013-03-09 04:51:00,36.5,28.9,30.22,NE,45,0.0,2.0,74,0.00,,,0.00,WUHU216HW,2013-03-09 09:51:00,
2013-03-09 04:56:00,36.8,29.3,30.22,NE,45,0.0,0.0,74,0.00,,,0.00,WUHU216HW,2013-03-09 09:56:00,
2013-03-09 05:01:00,37.2,29.3,30.22,NE,45,0.0,0.0,73,0.00,,,0.00,WUHU216HW,2013-03-09 10:01:00,
2013-03-09 05:06:00,37.2,29.3,30.21,NE,45,0.0,0.0,73,0.00,,,0.00,WUHU216HW,2013-03-09 10:06:00,
2013-03-09 05:12:00,37.4,29.5,30.22,ENE,68,0.4,0.4,73,0.00,,,0.00,WUHU216HW,2013-03-09 10:12:00,
2013-03-09 05:17:00,37.5,29.3,30.22,ENE,68,0.0,0.4,72,0.00,,,0.00,WUHU216HW,2013-03-09 10:17:00,
2013-03-09 05:22:00,37.7,29.5,30.22,North,0,0.0,1.1,72,0.00,,,0.00,WUHU216HW,2013-03-09 10:22:00,
2013-03-09 05:27:00,37.9,29.7,30.23,North,0,0.0,1.1,72,0.00,,,0.00,WUHU216HW,2013-03-09 10:27:00,
2013-03-09 05:32:00,37.9,29.7,30.23,North,0,0.0,0.0,72,0.00,,,0.00,WUHU216HW,2013-03-09 10:32:00,
2013-03-09 05:37:00,37.9,29.7,30.24,North,0,0.0,0.0,72,0.00,,,0.00,WUHU216HW,2013-03-09 10:37:00,
2013-03-09 05:42:00,38.1,29.5,30.24,North,0,0.0,0.0,71,0.00,,,0.00,WUHU216HW,2013-03-09 10:42:00,
2013-03-09 05:47:00,38.1,29.5,30.24,NNE,23,0.0,0.0,71,0.00,,,0.00,WUHU216HW,2013-03-09 10:47:00,
2013-03-09 05:52:00,38.1,29.5,30.24,NNE,23,0.0,0.0,71,0.00,,,0.00,WUHU216HW,2013-03-09 10:52:00,
2013-03-09 05:57:00,38.1,29.5,30.25,NNE,23,1.1,1.1,71,0.00,,,0.00,WUHU216HW,2013-03-09 10:57:00,
2013-03-09 06:02:00,38.1,29.5,30.24,NNE,23,0.0,1.1,71,0.00,,,0.00,WUHU216HW,2013-03-09 11:02:00,
2013-03-09 06:07:00,38.1,29.5,30.25,NNE,23,0.0,0.0,71,0.00,,,0.00,WUHU216HW,2013-03-09 11:07:00,
2013-03-09 06:12:00,38.1,29.5,30.25,NNE,23,0.0,0.0,71,0.00,,,0.00,WUHU216HW,2013-03-09 11:12:00,
2013-03-09 06:17:00,38.1,29.5,30.26,NNE,23,0.0,0.0,71,0.00,,,0.00,WUHU216HW,2013-03-09 11:17:00,
2013-03-09 06:23:00,38.1,29.5,30.25,NE,45,0.0,0.0,71,0.00,,,0.00,WUHU216HW,2013-03-09 11:23:00,
2013-03-09 06:28:00,38.3,29.8,30.26,NNE,23,0.0,0.0,71,0.00,,,0.00,WUHU216HW,2013-03-09 11:28:00,
2013-03-09 06:33:00,38.3,29.7,30.26,NE,45,0.0,0.0,71,0.00,,,0.00,WUHU216HW,2013-03-09 11:33:00,
2013-03-09 06:38:00,38.4,29.8,30.26,North,0,0.0,0.0,71,0.00,,,0.00,WUHU216HW,2013-03-09 11:38:00,
2013-03-09 06:43:00,38.4,29.8,30.26,North,0,0.0,2.0,70,0.00,,,0.00,WUHU216HW,2013-03-09 11:43:00,
2013-03-09 06:48:00,38.4,29.5,30.26,North,0,0.0,2.0,70,0.00,,,0.00,WUHU216HW,2013-03-09 11:48:00,
2013-03-09 06:53:00,38.4,29.8,30.26,North,0,0.0,0.0,71,0.00,,,0.00,WUHU216HW,2013-03-09 11:53:00,
2013-03-09 06:58:00,38.4,29.8,30.26,North,0,0.0,0.0,71,0.00,,,0.00,WUHU216HW,2013-03-09 11:58:00,
2013-03-09 07:03:00,38.3,29.7,30.26,North,0,0.0,0.0,71,0.00,,,0.00,WUHU216HW,2013-03-09 12:03:00,
2013-03-09 07:08:00,38.1,29.8,30.26,North,0,0.0,0.0,72,0.00,,,0.00,WUHU216HW,2013-03-09 12:08:00,
2013-03-09 07:14:00,37.9,29.7,30.26,North,0,0.0,0.0,72,0.00,,,0.00,WUHU216HW,2013-03-09 12:14:00,
2013-03-09 07:19:00,37.9,30.0,30.26,North,0,0.0,0.0,73,0.00,,,0.00,WUHU216HW,2013-03-09 12:19:00,
2013-03-09 07:24:00,37.7,30.0,30.26,North,0,0.0,0.0,73,0.00,,,0.00,WUHU216HW,2013-03-09 12:24:00,
2013-03-09 07:29:00,37.9,30.0,30.26,North,0,0.0,0.0,73,0.00,,,0.00,WUHU216HW,2013-03-09 12:29:00,
2013-03-09 07:34:00,37.9,30.3,30.27,North,0,0.0,0.0,74,0.00,,,0.00,WUHU216HW,2013-03-09 12:34:00,
2013-03-09 07:39:00,38.1,30.2,30.28,North,0,0.0,0.0,73,0.00,,,0.00,WUHU216HW,2013-03-09 12:39:00,
2013-03-09 07:44:00,38.4,30.8,30.27,North,0,0.0,0.0,74,0.00,,,0.00,WUHU216HW,2013-03-09 12:44:00,
2013-03-09 07:50:00,38.8,31.2,30.27,North,0,0.0,0.0,74,0.00,,,0.00,WUHU216HW,2013-03-09 12:50:00,
2013-03-09 07:55:00,38.8,31.2,30.27,North,0,0.0,0.0,74,0.00,,,0.00,WUHU216HW,2013-03-09 12:55:00,
2013-03-09 08:00:00,39.0,31.3,30.27,North,0,0.0,0.0,74,0.00,,,0.00,WUHU216HW,2013-03-09 13:00:00,
2013-03-09 08:05:00,39.0,31.3,30.27,North,0,0.0,0.0,74,0.00,,,0.00,WUHU216HW,2013-03-09 13:05:00,
2013-03-09 08:10:00,39.3,31.0,30.28,North,0,0.0,0.0,72,0.00,,,0.00,WUHU216HW,2013-03-09 13:10:00,
2013-03-09 08:15:00,39.7,31.4,30.27,NNE,23,0.0,0.0,72,0.00,,,0.00,WUHU216HW,2013-03-09 13:15:00,
2013-03-09 08:20:00,39.9,31.2,30.28,NNE,23,0.0,0.0,71,0.00,,,0.00,WUHU216HW,2013-03-09 13:20:00,
2013-03-09 08:25:00,40.6,31.6,30.28,NNE,23,0.0,0.0,70,0.00,,,0.00,WUHU216HW,2013-03-09 13:25:00,
2013-03-09 08:30:00,41.1,31.7,30.28,NNE,23,0.0,0.0,69,0.00,,,0.00,WUHU216HW,2013-03-09 13:30:00,
2013-03-09 08:36:00,41.5,31.9,30.28,NNE,23,0.0,0.0,68,0.00,,,0.00,WUHU216HW,2013-03-09 13:36:00,
2013-03-09 08:41:00,42.6,32.4,30.28,NNE,23,0.0,0.0,67,0.00,,,0.00,WUHU216HW,2013-03-09 13:41:00,
2013-03-09 08:46:00,43.8,33.6,30.28,NNE,23,0.0,0.0,67,0.00,,,0.00,WUHU216HW,2013-03-09 13:46:00,
2013-03-09 08:51:00,45.1,34.0,30.27,NW,315,0.0,0.0,65,0.00,,,0.00,WUHU216HW,2013-03-09 13:51:00,
2013-03-09 08:56:00,46.0,34.5,30.27,NE,45,0.0,0.0,64,0.00,,,0.00,WUHU216HW,2013-03-09 13:56:00,
2013-03-09 09:01:00,46.9,34.5,30.27,NNE,23,1.5,1.5,62,0.00,,,0.00,WUHU216HW,2013-03-09 14:01:00,
2013-03-09 09:06:00,47.4,34.8,30.27,NNE,23,0.0,1.5,61,0.00,,,0.00,WUHU216HW,2013-03-09 14:06:00,
2013-03-09 09:11:00,48.3,34.7,30.28,ENE,68,0.0,0.0,59,0.00,,,0.00,WUHU216HW,2013-03-09 14:11:00,
2013-03-09 09:16:00,49.2,35.1,30.28,ESE,113,0.0,0.0,58,0.00,,,0.00,WUHU216HW,2013-03-09 14:16:00,
2013-03-09 09:21:00,50.1,35.6,30.27,ESE,113,0.0,0.0,57,0.00,,,0.00,WUHU216HW,2013-03-09 14:21:00,
2013-03-09 09:26:00,50.9,35.6,30.27,SE,135,2.2,2.2,56,0.00,,,0.00,WUHU216HW,2013-03-09 14:26:00,
2013-03-09 09:31:00,51.9,36.3,30.26,SE,135,0.0,2.2,56,0.00,,,0.00,WUHU216HW,2013-03-09 14:31:00,
2013-03-09 09:36:00,52.5,36.6,30.26,SE,135,0.0,2.0,54,0.00,,,0.00,WUHU216HW,2013-03-09 14:36:00,
2013-03-09 09:41:00,53.4,36.6,30.26,SE,135,0.0,1.7,53,0.00,,,0.00,WUHU216HW,2013-03-09 14:41:00,
2013-03-09 09:47:00,53.7,36.5,30.26,SE,135,0.0,2.9,52,0.00,,,0.00,WUHU216HW,2013-03-09 14:47:00,
2013-03-09 09:52:00,54.3,36.5,30.27,ESE,113,1.7,3.3,51,0.00,,,0.00,WUHU216HW,2013-03-09 14:52:00,
2013-03-09 09:57:00,54.3,36.0,30.26,SE,135,0.0,3.3,50,0.00,,,0.00,WUHU216HW,2013-03-09 14:57:00,
2013-03-09 10:02:00,54.8,36.5,30.27,SE,135,0.0,2.9,50,0.00,,,0.00,WUHU216HW,2013-03-09 15:02:00,
2013-03-09 10:07:00,55.4,37.0,30.27,East,90,0.0,1.5,50,0.00,,,0.00,WUHU216HW,2013-03-09 15:07:00,
2013-03-09 10:12:00,56.1,37.1,30.26,SSE,158,0.4,2.0,49,0.00,,,0.00,WUHU216HW,2013-03-09 15:12:00,
2013-03-09 10:17:00,56.4,36.9,30.26,NE,45,0.0,2.0,48,0.00,,,0.00,WUHU216HW,2013-03-09 15:17:00,
2013-03-09 10:22:00,56.8,37.3,30.26,SE,135,1.7,1.7,48,0.00,,,0.00,WUHU216HW,2013-03-09 15:22:00,
2013-03-09 10:27:00,57.3,37.2,30.26,ESE,113,2.0,3.5,47,0.00,,,0.00,WUHU216HW,2013-03-09 15:27:00,
2013-03-09 10:32:00,57.5,36.8,30.25,ESE,113,0.0,4.2,46,0.00,,,0.00,WUHU216HW,2013-03-09 15:32:00,
2013-03-09 10:37:00,57.0,36.3,30.26,SE,135,2.9,4.2,46,0.00,,,0.00,WUHU216HW,2013-03-09 15:37:00,
2013-03-09 10:42:00,56.1,35.4,30.25,NNE,23,0.0,3.1,46,0.00,,,0.00,WUHU216HW,2013-03-09 15:42:00,
2013-03-09 10:47:00,55.4,34.8,30.26,SE,135,3.3,7.1,46,0.00,,,0.00,WUHU216HW,2013-03-09 15:47:00,
2013-03-09 10:52:00,54.6,34.1,30.26,SE,135,0.0,7.1,46,0.00,,,0.00,WUHU216HW,2013-03-09 15:52:00,
2013-03-09 10:57:00,54.3,34.3,30.26,South,180,1.7,2.9,47,0.00,,,0.00,WUHU216HW,2013-03-09 15:57:00,
2013-03-09 11:02:00,54.3,34.3,30.26,SSE,158,1.7,2.6,47,0.00,,,0.00,WUHU216HW,2013-03-09 16:02:00,
2013-03-09 11:07:00,54.6,34.8,30.26,ENE,68,0.0,1.7,47,0.00,,,0.00,WUHU216HW,2013-03-09 16:07:00,
2013-03-09 11:12:00,55.2,34.6,30.26,WNW,293,0.0,2.6,46,0.00,,,0.00,WUHU216HW,2013-03-09 16:12:00,
2013-03-09 11:17:00,55.2,35.2,30.27,East,90,0.0,2.6,47,0.00,,,0.00,WUHU216HW,2013-03-09 16:17:00,
2013-03-09 11:23:00,55.7,35.1,30.27,ENE,68,0.0,0.0,46,0.00,,,0.00,WUHU216HW,2013-03-09 16:23:00,
2013-03-09 11:28:00,56.3,36.2,30.26,ENE,68,0.0,0.0,47,0.00,,,0.00,WUHU216HW,2013-03-09 16:28:00,
2013-03-09 11:33:00,56.8,36.1,30.26,SSE,158,0.0,0.8,46,0.00,,,0.00,WUHU216HW,2013-03-09 16:33:00,
2013-03-09 11:38:00,57.0,35.7,30.26,ESE,113,0.0,0.8,45,0.00,,,0.00,WUHU216HW,2013-03-09 16:38:00,
2013-03-09 11:43:00,57.3,35.5,30.26,ESE,113,1.3,2.4,44,0.00,,,0.00,WUHU216HW,2013-03-09 16:43:00,
2013-03-09 11:48:00,57.7,35.8,30.25,SSE,158,1.3,2.4,44,0.00,,,0.00,WUHU216HW,2013-03-09 16:48:00,
2013-03-09 11:53:00,57.9,36.0,30.25,SE,135,0.0,2.0,44,0.00,,,0.00,WUHU216HW,2013-03-09 16:53:00,
2013-03-09 11:58:00,58.4,35.9,30.24,SE,135,2.6,3.8,43,0.00,,,0.00,WUHU216HW,2013-03-09 16:58:00,
2013-03-09 12:03:00,58.8,36.2,30.24,SE,135,2.2,3.8,43,0.00,,,0.00,WUHU216HW,2013-03-09 17:03:00,
2013-03-09 12:08:00,59.1,36.5,30.23,South,180,0.0,5.1,43,0.00,,,0.00,WUHU216HW,2013-03-09 17:08:00,
2013-03-09 12:13:00,59.7,35.9,30.23,SSE,158,3.3,5.1,41,0.00,,,0.00,WUHU216HW,2013-03-09 17:13:00,
2013-03-09 12:18:00,60.0,36.8,30.23,ESE,113,0.0,4.2,42,0.00,,,0.00,WUHU216HW,2013-03-09 17:18:00,
2013-03-09 12:23:00,60.0,36.4,30.23,SE,135,5.1,5.1,41,0.00,,,0.00,WUHU216HW,2013-03-09 17:23:00,
2013-03-09 12:28:00,60.4,36.5,30.22,SE,135,0.0,5.1,41,0.00,,,0.00,WUHU216HW,2013-03-09 17:28:00,
2013-03-09 12:34:00,60.4,35.9,30.22,SE,135,0.0,2.9,40,0.00,,,0.00,WUHU216HW,2013-03-09 17:34:00,
2013-03-09 12:39:00,60.4,36.5,30.22,SE,135,2.6,3.5,41,0.00,,,0.00,WUHU216HW,2013-03-09 17:39:00,
2013-03-09 12:44:00,60.4,35.9,30.22,South,180,2.4,4.4,40,0.00,,,0.00,WUHU216HW,2013-03-09 17:44:00,
2013-03-09 12:49:00,60.4,35.9,30.22,SE,135,1.1,4.4,40,0.00,,,0.00,WUHU216HW,2013-03-09 17:49:00,
2013-03-09 12:54:00,60.4,36.5,30.22,SSE,158,2.2,2.2,41,0.00,,,0.00,WUHU216HW,2013-03-09 17:54:00,
2013-03-09 12:59:00,60.4,36.5,30.21,SE,135,0.0,2.2,41,0.00,,,0.00,WUHU216HW,2013-03-09 17:59:00,
2013-03-09 13:04:00,60.4,36.5,30.22,SSE,158,2.0,2.4,41,0.00,,,0.00,WUHU216HW,2013-03-09 18:04:00,
2013-03-09 13:09:00,60.4,36.5,30.21,SE,135,0.0,4.0,41,0.00,,,0.00,WUHU216HW,2013-03-09 18:09:00,
2013-03-09 13:14:00,60.2,35.8,30.21,SW,225,0.0,4.0,41,0.00,,,0.00,WUHU216HW,2013-03-09 18:14:00,
2013-03-09 13:19:00,60.4,35.9,30.21,SE,135,0.0,2.9,40,0.00,,,0.00,WUHU216HW,2013-03-09 18:19:00,
2013-03-09 13:24:00,60.4,35.9,30.21,SSW,203,0.0,1.3,40,0.00,,,0.00,WUHU216HW,2013-03-09 18:24:00,
2013-03-09 13:29:00,60.4,35.9,30.21,SE,135,0.0,1.3,40,0.00,,,0.00,WUHU216HW,2013-03-09 18:29:00,
2013-03-09 13:34:00,60.4,35.9,30.21,East,90,0.0,1.3,40,0.00,,,0.00,WUHU216HW,2013-03-09 18:34:00,
2013-03-09 13:39:00,60.6,36.1,30.20,SSE,158,4.6,4.6,40,0.00,,,0.00,WUHU216HW,2013-03-09 18:39:00,
2013-03-09 13:44:00,60.4,35.9,30.19,SE,135,2.0,4.6,40,0.00,,,0.00,WUHU216HW,2013-03-09 18:44:00,
2013-03-09 13:49:00,60.0,35.6,30.19,SSE,158,2.6,4.0,40,0.00,,,0.00,WUHU216HW,2013-03-09 18:49:00,
2013-03-09 13:54:00,60.4,35.8,30.19,SE,135,2.0,4.0,40,0.00,,,0.00,WUHU216HW,2013-03-09 18:54:00,
2013-03-09 13:59:00,60.4,35.9,30.19,ESE,113,0.0,3.3,40,0.00,,,0.00,WUHU216HW,2013-03-09 18:59:00,
2013-03-09 14:04:00,60.6,36.1,30.19,SSE,158,2.6,2.6,40,0.00,,,0.00,WUHU216HW,2013-03-09 19:04:00,
2013-03-09 14:09:00,61.1,35.9,30.18,SE,135,1.7,5.3,39,0.00,,,0.00,WUHU216HW,2013-03-09 19:09:00,
2013-03-09 14:15:00,62.0,36.5,30.18,ESE,113,2.6,5.5,39,0.00,,,0.00,WUHU216HW,2013-03-09 19:15:00,
2013-03-09 14:20:00,63.6,38.1,30.18,SE,135,0.0,5.8,39,0.00,,,0.00,WUHU216HW,2013-03-09 19:20:00,
2013-03-09 14:25:00,65.3,38.2,30.18,SSE,158,2.0,5.8,37,0.00,,,0.00,WUHU216HW,2013-03-09 19:25:00,
2013-03-09 14:30:00,65.8,37.9,30.18,SE,135,2.6,2.6,36,0.00,,,0.00,WUHU216HW,2013-03-09 19:30:00,
2013-03-09 14:35:00,66.3,38.1,30.18,SSE,158,0.0,6.2,36,0.00,,,0.00,WUHU216HW,2013-03-09 19:35:00,
2013-03-09 14:40:00,66.7,38.0,30.18,SE,135,2.0,6.2,35,0.00,,,0.00,WUHU216HW,2013-03-09 19:40:00,
2013-03-09 14:45:00,66.0,37.4,30.18,SSE,158,0.0,4.2,35,0.00,,,0.00,WUHU216HW,2013-03-09 19:45:00,
2013-03-09 14:50:00,65.3,36.7,30.18,SSE,158,0.0,3.5,35,0.00,,,0.00,WUHU216HW,2013-03-09 19:50:00,
2013-03-09 14:55:00,64.5,36.8,30.18,ESE,113,0.0,3.5,36,0.00,,,0.00,WUHU216HW,2013-03-09 19:55:00,
2013-03-09 15:01:00,63.8,36.1,30.18,SSE,158,2.0,3.5,36,0.00,,,0.00,WUHU216HW,2013-03-09 20:01:00,
2013-03-09 15:06:00,62.7,35.5,30.18,East,90,1.5,3.5,37,0.00,,,0.00,WUHU216HW,2013-03-09 20:06:00,
2013-03-09 15:11:00,62.4,35.6,30.18,SE,135,0.8,3.1,37,0.00,,,0.00,WUHU216HW,2013-03-09 20:11:00,
2013-03-09 15:16:00,62.2,35.2,30.18,SE,135,0.0,3.1,37,0.00,,,0.00,WUHU216HW,2013-03-09 20:16:00,
2013-03-09 15:21:00,61.7,35.6,30.18,SE,135,2.6,5.1,38,0.00,,,0.00,WUHU216HW,2013-03-09 20:21:00,
2013-03-09 15:26:00,61.5,35.5,30.18,South,180,0.0,5.1,38,0.00,,,0.00,WUHU216HW,2013-03-09 20:26:00,
2013-03-09 15:31:00,61.1,35.2,30.17,SSE,158,2.9,2.9,38,0.00,,,0.00,WUHU216HW,2013-03-09 20:31:00,
2013-03-09 15:36:00,60.9,35.0,30.17,SE,135,4.0,4.4,38,0.00,,,0.00,WUHU216HW,2013-03-09 20:36:00,
2013-03-09 15:41:00,60.9,35.0,30.17,SSE,158,1.3,4.4,38,0.00,,,0.00,WUHU216HW,2013-03-09 20:41:00,
2013-03-09 15:46:00,60.6,34.7,30.17,SE,135,3.5,4.9,38,0.00,,,0.00,WUHU216HW,2013-03-09 20:46:00,
2013-03-09 15:51:00,60.6,34.7,30.17,SSE,158,6.2,6.2,38,0.00,,,0.00,WUHU216HW,2013-03-09 20:51:00,
2013-03-09 15:56:00,60.6,35.4,30.17,SSE,158,1.7,6.2,39,0.00,,,0.00,WUHU216HW,2013-03-09 20:56:00,
2013-03-09 16:01:00,60.6,35.4,30.17,SE,135,0.0,1.7,39,0.00,,,0.00,WUHU216HW,2013-03-09 21:01:00,
2013-03-09 16:06:00,60.9,35.7,30.17,SE,135,0.0,1.7,39,0.00,,,0.00,WUHU216HW,2013-03-09 21:06:00,
2013-03-09 16:12:00,61.5,35.5,30.17,SSE,158,0.0,2.6,38,0.00,,,0.00,WUHU216HW,2013-03-09 21:12:00,
2013-03-09 16:17:00,61.8,35.8,30.17,SE,135,0.0,2.6,38,0.00,,,0.00,WUHU216HW,2013-03-09 21:17:00,
2013-03-09 16:22:00,62.2,36.1,30.16,SE,135,2.2,4.2,38,0.00,,,0.00,WUHU216HW,2013-03-09 21:22:00,
2013-03-09 16:27:00,62.4,35.6,30.17,SE,135,2.0,4.2,37,0.00,,,0.00,WUHU216HW,2013-03-09 21:27:00,
2013-03-09 16:32:00,62.4,36.3,30.16,SE,135,2.2,4.0,38,0.00,,,0.00,WUHU216HW,2013-03-09 21:32:00,
2013-03-09 16:37:00,62.4,35.6,30.16,SSE,158,0.0,4.4,37,0.00,,,0.00,WUHU216HW,2013-03-09 21:37:00,
2013-03-09 16:42:00,62.4,35.6,30.16,SSE,158,0.0,4.6,37,0.00,,,0.00,WUHU216HW,2013-03-09 21:42:00,
2013-03-09 16:47:00,62.2,35.4,30.16,SE,135,0.8,4.6,37,0.00,,,0.00,WUHU216HW,2013-03-09 21:47:00,
2013-03-09 16:52:00,62.2,36.1,30.16,SSE,158,2.2,3.5,38,0.00,,,0.00,WUHU216HW,2013-03-09 21:52:00,
2013-03-09 16:57:00,62.0,35.4,30.16,SSE,158,1.5,5.8,38,0.00,,,0.00,WUHU216HW,2013-03-09 21:57:00,
2013-03-09 17:02:00,61.8,35.1,30.16,SSE,158,4.0,5.8,37,0.00,,,0.00,WUHU216HW,2013-03-09 22:02:00,
2013-03-09 17:07:00,61.8,35.1,30.16,SE,135,0.8,4.0,37,0.00,,,0.00,WUHU216HW,2013-03-09 22:07:00,
2013-03-09 17:12:00,61.7,35.6,30.16,ESE,113,1.1,2.2,38,0.00,,,0.00,WUHU216HW,2013-03-09 22:12:00,
2013-03-09 17:18:00,61.5,35.5,30.15,ESE,113,0.0,4.2,37,0.00,,,0.00,WUHU216HW,2013-03-09 22:18:00,
2013-03-09 17:23:00,61.3,35.3,30.14,SE,135,2.9,6.7,38,0.00,,,0.00,WUHU216HW,2013-03-09 22:23:00,
2013-03-09 17:28:00,61.3,35.3,30.14,SE,135,3.3,6.7,38,0.00,,,0.00,WUHU216HW,2013-03-09 22:28:00,
2013-03-09 17:33:00,61.1,35.2,30.14,SSE,158,0.0,3.3,38,0.00,,,0.00,WUHU216HW,2013-03-09 22:33:00,
2013-03-09 17:38:00,60.9,35.0,30.14,SE,135,0.8,2.4,38,0.00,,,0.00,WUHU216HW,2013-03-09 22:38:00,
2013-03-09 17:43:00,60.6,34.7,30.14,SE,135,0.8,4.9,38,0.00,,,0.00,WUHU216HW,2013-03-09 22:43:00,
2013-03-09 17:48:00,60.4,34.5,30.14,SE,135,0.0,5.5,38,0.00,,,0.00,WUHU216HW,2013-03-09 22:48:00,
2013-03-09 17:53:00,60.0,34.9,30.14,SE,135,1.5,5.5,39,0.00,,,0.00,WUHU216HW,2013-03-09 22:53:00,
2013-03-09 17:58:00,59.9,34.7,30.14,SE,135,1.7,4.2,39,0.00,,,0.00,WUHU216HW,2013-03-09 22:58:00,
2013-03-09 18:03:00,59.7,34.6,30.15,SSE,158,2.4,4.2,39,0.00,,,0.00,WUHU216HW,2013-03-09 23:03:00,
2013-03-09 18:08:00,59.5,35.1,30.15,SSE,158,1.1,2.6,40,0.00,,,0.00,WUHU216HW,2013-03-09 23:08:00,
2013-03-09 18:13:00,59.1,34.8,30.15,ESE,113,2.4,2.4,40,0.00,,,0.00,WUHU216HW,2013-03-09 23:13:00,
2013-03-09 18:18:00,58.8,34.5,30.15,SE,135,1.7,2.4,40,0.00,,,0.00,WUHU216HW,2013-03-09 23:18:00,
2013-03-09 18:23:00,58.8,34.5,30.15,SSE,158,0.0,4.6,40,0.00,,,0.00,WUHU216HW,2013-03-09 23:23:00,
2013-03-09 18:28:00,58.6,34.3,30.15,SE,135,2.6,4.6,40,0.00,,,0.00,WUHU216HW,2013-03-09 23:28:00,
2013-03-09 18:33:00,58.2,34.6,30.15,SE,135,2.2,4.0,41,0.00,,,0.00,WUHU216HW,2013-03-09 23:33:00,
2013-03-09 18:38:00,57.9,34.3,30.15,SSE,158,1.3,4.0,41,0.00,,,0.00,WUHU216HW,2013-03-09 23:38:00,
2013-03-09 18:43:00,57.5,33.9,30.15,SE,135,0.0,3.3,41,0.00,,,0.00,WUHU216HW,2013-03-09 23:43:00,
2013-03-09 18:48:00,57.2,33.8,30.15,ESE,113,0.0,1.3,41,0.00,,,0.00,WUHU216HW,2013-03-09 23:48:00,
2013-03-09 18:53:00,56.8,33.8,30.15,SSE,158,0.0,1.7,42,0.00,,,0.00,WUHU216HW,2013-03-09 23:53:00,
2013-03-09 18:58:00,56.4,33.5,30.15,SE,135,0.0,1.7,42,0.00,,,0.00,WUHU216HW,2013-03-09 23:58:00,
2013-03-09 19:03:00,56.1,33.2,30.15,SSE,158,0.0,1.3,42,0.00,,,0.00,WUHU216HW,2013-03-10 00:03:00,
2013-03-09 19:08:00,55.9,33.6,30.15,SSE,158,0.0,1.1,43,0.00,,,0.00,WUHU216HW,2013-03-10 00:08:00,
2013-03-09 19:13:00,55.5,33.8,30.15,SSE,158,0.0,0.0,44,0.00,,,0.00,WUHU216HW,2013-03-10 00:13:00,
2013-03-09 19:18:00,55.2,33.5,30.16,SSE,158,0.0,0.0,44,0.00,,,0.00,WUHU216HW,2013-03-10 00:18:00,
2013-03-09 19:23:00,55.0,33.3,30.15,SSE,158,0.0,0.0,44,0.00,,,0.00,WUHU216HW,2013-03-10 00:23:00,
2013-03-09 19:28:00,54.5,33.4,30.15,SSE,158,0.0,0.0,45,0.00,,,0.00,WUHU216HW,2013-03-10 00:28:00,
2013-03-09 19:33:00,54.3,33.2,30.15,SSE,158,0.0,0.0,45,0.00,,,0.00,WUHU216HW,2013-03-10 00:33:00,
2013-03-09 19:38:00,53.9,32.9,30.15,SSE,158,0.0,0.0,45,0.00,,,0.00,WUHU216HW,2013-03-10 00:38:00,
2013-03-09 19:43:00,53.7,33.3,30.15,SSE,158,0.0,0.0,46,0.00,,,0.00,WUHU216HW,2013-03-10 00:43:00,
2013-03-09 19:48:00,53.2,33.4,30.16,SSE,158,0.0,0.0,47,0.00,,,0.00,WUHU216HW,2013-03-10 00:48:00,
2013-03-09 19:53:00,52.8,33.0,30.15,SSE,158,0.0,0.0,47,0.00,,,0.00,WUHU216HW,2013-03-10 00:53:00,
2013-03-09 19:58:00,52.5,33.3,30.15,SSE,158,0.0,0.0,48,0.00,,,0.00,WUHU216HW,2013-03-10 00:58:00,
2013-03-09 20:03:00,52.1,33.4,30.16,SSE,158,0.0,0.0,49,0.00,,,0.00,WUHU216HW,2013-03-10 01:03:00,
2013-03-09 20:08:00,51.6,33.6,30.15,SSE,158,0.0,0.0,50,0.00,,,0.00,WUHU216HW,2013-03-10 01:08:00,
2013-03-09 20:13:00,51.4,33.4,30.15,SSE,158,0.0,0.0,50,0.00,,,0.00,WUHU216HW,2013-03-10 01:13:00,
2013-03-09 20:19:00,50.9,33.6,30.15,SSE,158,0.0,0.0,51,0.00,,,0.00,WUHU216HW,2013-03-10 01:19:00,
2013-03-09 20:24:00,50.7,33.7,30.15,SSE,158,0.0,0.0,52,0.00,,,0.00,WUHU216HW,2013-03-10 01:24:00,
2013-03-09 20:29:00,50.1,33.4,30.15,SSE,158,0.0,0.0,52,0.00,,,0.00,WUHU216HW,2013-03-10 01:29:00,
2013-03-09 20:34:00,49.8,32.9,30.15,SSE,158,0.0,0.0,52,0.00,,,0.00,WUHU216HW,2013-03-10 01:34:00,
2013-03-09 20:39:00,49.6,32.7,30.15,SSE,158,0.0,0.0,52,0.00,,,0.00,WUHU216HW,2013-03-10 01:39:00,
2013-03-09 20:44:00,49.2,32.8,30.15,SSE,158,0.0,0.0,53,0.00,,,0.00,WUHU216HW,2013-03-10 01:44:00,
2013-03-09 20:49:00,49.1,32.6,30.15,SSE,158,0.0,0.0,53,0.00,,,0.00,WUHU216HW,2013-03-10 01:49:00,
2013-03-09 20:54:00,48.9,32.4,30.15,SSE,158,0.0,0.0,53,0.00,,,0.00,WUHU216HW,2013-03-10 01:54:00,
2013-03-09 20:59:00,48.7,32.3,30.15,SSE,158,0.0,0.0,53,0.00,,,0.00,WUHU216HW,2013-03-10 01:59:00,
2013-03-09 21:04:00,48.5,32.1,30.14,SSE,158,0.0,0.0,53,0.00,,,0.00,WUHU216HW,2013-03-10 02:04:00,
2013-03-09 21:09:00,48.5,32.5,30.15,SSE,158,0.0,0.0,54,0.00,,,0.00,WUHU216HW,2013-03-10 02:09:00,
2013-03-09 21:14:00,48.5,32.5,30.14,SSE,158,0.0,0.0,54,0.00,,,0.00,WUHU216HW,2013-03-10 02:14:00,
2013-03-09 21:19:00,48.5,32.5,30.14,SSE,158,0.0,0.0,54,0.00,,,0.00,WUHU216HW,2013-03-10 02:19:00,
2013-03-09 21:24:00,48.3,32.4,30.14,SSE,158,0.0,0.0,54,0.00,,,0.00,WUHU216HW,2013-03-10 02:24:00,
2013-03-09 21:29:00,48.2,32.7,30.15,SSE,158,0.0,0.0,55,0.00,,,0.00,WUHU216HW,2013-03-10 02:29:00,
2013-03-09 21:34:00,48.0,32.5,30.14,SSE,158,0.0,0.0,55,0.00,,,0.00,WUHU216HW,2013-03-10 02:34:00,
2013-03-09 21:39:00,48.0,33.0,30.14,SSE,158,0.0,0.0,56,0.00,,,0.00,WUHU216HW,2013-03-10 02:39:00,
2013-03-09 21:44:00,47.8,33.2,30.14,SSE,158,0.0,0.0,57,0.00,,,0.00,WUHU216HW,2013-03-10 02:44:00,
2013-03-09 21:49:00,47.4,32.9,30.14,South,180,0.0,0.0,57,0.00,,,0.00,WUHU216HW,2013-03-10 02:49:00,
2013-03-09 21:54:00,47.4,33.4,30.14,South,180,0.0,0.0,58,0.00,,,0.00,WUHU216HW,2013-03-10 02:54:00,
2013-03-09 21:59:00,47.3,33.6,30.14,South,180,0.0,0.0,59,0.00,,,0.00,WUHU216HW,2013-03-10 02:59:00,
2013-03-09 22:05:00,47.3,34.1,30.15,South,180,0.0,0.0,60,0.00,,,0.00,WUHU216HW,2013-03-10 03:05:00,
2013-03-09 22:10:00,47.1,34.3,30.15,South,180,0.0,0.0,60,0.00,,,0.00,WUHU216HW,2013-03-10 03:10:00,
2013-03-09 22:15:00,47.1,34.3,30.15,South,180,0.0,0.0,61,0.00,,,0.00,WUHU216HW,2013-03-10 03:15:00,
2013-03-09 22:20:00,46.9,34.5,30.15,South,180,0.0,0.0,62,0.00,,,0.00,WUHU216HW,2013-03-10 03:20:00,
2013-03-09 22:25:00,46.9,34.5,30.15,South,180,0.0,0.0,62,0.00,,,0.00,WUHU216HW,2013-03-10 03:25:00,
2013-03-09 22:30:00,46.7,34.7,30.15,South,180,0.0,0.0,63,0.00,,,0.00,WUHU216HW,2013-03-10 03:30:00,
2013-03-09 22:35:00,46.5,34.6,30.15,South,180,0.0,0.0,63,0.00,,,0.00,WUHU216HW,2013-03-10 03:35:00,
2013-03-09 22:40:00,46.5,34.6,30.15,South,180,0.0,0.0,63,0.00,,,0.00,WUHU216HW,2013-03-10 03:40:00,
2013-03-09 22:45:00,46.4,34.8,30.15,South,180,0.0,0.0,64,0.00,,,0.00,WUHU216HW,2013-03-10 03:45:00,
2013-03-09 22:50:00,46.2,34.6,30.15,South,180,0.0,0.0,64,0.00,,,0.00,WUHU216HW,2013-03-10 03:50:00,
2013-03-09 22:55:00,46.0,34.8,30.14,South,180,0.0,0.0,65,0.00,,,0.00,WUHU216HW,2013-03-10 03:55:00,
2013-03-09 23:00:00,46.0,34.8,30.14,South,180,0.0,0.0,65,0.00,,,0.00,WUHU216HW,2013-03-10 04:00:00,
2013-03-09 23:05:00,45.6,34.5,30.14,South,180,0.0,0.0,65,0.00,,,0.00,WUHU216HW,2013-03-10 04:05:00,
2013-03-09 23:10:00,45.5,34.3,30.14,South,180,0.0,0.0,65,0.00,,,0.00,WUHU216HW,2013-03-10 04:10:00,
2013-03-09 23:15:00,45.5,34.7,30.14,South,180,0.0,0.0,66,0.00,,,0.00,WUHU216HW,2013-03-10 04:15:00,
2013-03-09 23:20:00,45.3,34.9,30.14,South,180,0.0,0.0,67,0.00,,,0.00,WUHU216HW,2013-03-10 04:20:00,
2013-03-09 23:26:00,45.3,34.9,30.14,South,180,0.0,0.0,67,0.00,,,0.00,WUHU216HW,2013-03-10 04:26:00,
2013-03-09 23:31:00,45.3,34.9,30.14,South,180,0.0,0.0,67,0.00,,,0.00,WUHU216HW,2013-03-10 04:31:00,
2013-03-09 23:36:00,45.3,34.9,30.14,South,180,0.0,0.0,67,0.00,,,0.00,WUHU216HW,2013-03-10 04:36:00,
2013-03-09 23:41:00,45.3,34.9,30.13,South,180,0.0,0.0,67,0.00,,,0.00,WUHU216HW,2013-03-10 04:41:00,
2013-03-09 23:46:00,45.1,34.8,30.13,South,180,0.0,0.0,67,0.00,,,0.00,WUHU216HW,2013-03-10 04:46:00,
2013-03-09 23:51:00,45.1,35.1,30.13,South,180,0.0,0.0,68,0.00,,,0.00,WUHU216HW,2013-03-10 04:51:00,
2013-03-09 23:56:00,45.3,35.3,30.12,South,180,0.0,0.0,68,0.00,,,0.00,WUHU216HW,2013-03-10 04:56:00,